Other Public Products
Issued by NWS Charleston, SC

Current Version | Previous Version | Text Only | Print | Product List | Glossary Off
Versions: 1 2 3 4 5 6 7 8 9 10 11 12 13 14 15 16 17 18 19 20 21 22 23 24 25 26 27 28 29 30 31 32 33 34 35 36 37 38 39 40 41 42 43 44 45 46 47 48 49 50

000
FPUS82 KCHS 250143
OPUCHS

TEST...KCHS/KSAV Gateway Observations...TEST
National Weather Service Charleston SC
900 PM EDT SUN SEP 24 2017

NOTE: "fair" indicates few or no clouds below 12,000 feet with no
significant weather and/or obstructions to visibility.

SCZ050-WAZ558-NCZ071-TXZ119-213-PAZ071-DCZ001-FLZ074-172-MI076-
NYZ176-178-MAZ016-IL014-TNZ027-NJZ106-GAZ044-MD014-250200-

...Gateway Observations for Charleston International...

CITY           SKY/WX    TMP DP  RH WIND       PRES   REMARKS
Chas Airport   CLOUDY    76  70  82 NE5       29.95S
Seattle        MOCLDY    70  48  45 N5        30.10F
Charlotte      CLOUDY    77  65  66 N8        30.05R
Dallas DFW     PTCLDY    85  64  49 SE9       29.83R
Dallas Love    PTCLDY    87  64  46 SE15      29.83S
Philladelphia  CLEAR     78  65  63 S5        30.05S
Wash National  PTCLDY    80  70  71 CALM      30.05S
Baltimore      PTCLDY    72  67  84 W3        30.05R
Miami          MOCLDY    85  76  74 NE5       29.88R HX  94
Detroit        CLEAR     79  66  64 S3        30.09S
Newark         CLEAR     79  64  60 E3        30.04R
Laguardia      PTCLDY    77  63  61 S7        30.04R
J F K          PTCLDY    72  66  81 S5        30.06R
Boston Logan   CLEAR     70  64  81 CALM      30.04R
Ft. Lauderdale PTCLDY    83  75  77 NE8       29.86R HX  90
Chicago O`Hare PTCLDY    80  59  48 SE8       30.01R
Chicago Midway PTCLDY    82  61  48 E7        30.01S
Houston Bush   PTCLDY    75  70  84 E7        29.86F
Houston Hobby  PTCLDY    83  72  69 SE7       29.85R
Nashville      PTCLDY    78  66  66 SE6       30.02R
Atlanta        PTCLDY    76  65  68 E7        30.02S

$$

GAZ044-118-TXZ119-213-NCZ071-DCZ001-MDZ014-506-PAZ021-071-NJZ106-
NYZ176-178-MAZ106-OHZ011-021-055-MIZ076-KYZ091-ILZ014-INZ047-
MNZ060-ONZ431-250200-

...Gateway Observations for Savannah International...

CITY           SKY/WX    TMP DP  RH WIND       PRES   REMARKS
Savannah Arpt  PTCLDY    76  69  79 N5        29.95F
Atlanta        PTCLDY    76  65  68 E7        30.02S
Charlotte      CLOUDY    77  65  66 N8        30.05R
Dallas DFW     PTCLDY    85  64  49 SE9       29.83R
Houston Bush   PTCLDY    75  70  84 E7        29.86F
Wash National  PTCLDY    80  70  71 CALM      30.05S
Wash Dulles    PTCLDY    73  67  81 CALM      30.06R
Baltimore      PTCLDY    72  67  84 W3        30.05R
Philadelphia   CLEAR     78  65  63 S5        30.05S
Newark         CLEAR     79  64  60 E3        30.04R
Laguardia      PTCLDY    77  63  61 S7        30.04R
J F K          PTCLDY    72  66  81 S5        30.06R
Boston         CLEAR     70  64  81 CALM      30.04R
Pittsburg      PTCLDY    77  63  61 CALM      30.10S
Akron          CLEAR     76  60  57 NE6       30.10S
Cleveland      CLEAR     79  67  66 NE6       30.10S
Cincinnati     PTCLDY    74  53  48 SE3       30.06R
Columbus       PTCLDY    73  62  70 CALM      30.06S
Detroit        CLEAR     79  66  64 S3        30.09S
Chicago O`Hare PTCLDY    80  59  48 SE8       30.01R
Minneapolis    MOCLDY    77  66  68 W10       29.89R
Indianapolis   PTCLDY    79  57  46 E7        30.04R
Toronto Canada CLEAR     82  66  57 S5        30.09R

$$




USA.gov is the U.S. government's official web portal to all federal, state and local government web resources and services.